St. Stephen, New Brunswick

1:22 PM AST on December 15, 2017 (GMT -0400)
St. Stephen

Weather History for CWSS - January, 2013

Change the Weather History Date:

Wednesday, January 30, 2013

  Actual Average Record
Temperature  
Mean Temperature 32 °F -  
Max Temperature 51 °F - - ()
Min Temperature 14 °F - - ()
Degree Days  
Heating Degree Days 32    
Moisture  
Dew Point 35 °F    
Average Humidity 92    
Maximum Humidity 97    
Minimum Humidity 82    
Precipitation  
Precipitation 0.02 in - - ()
Sea Level Pressure  
Sea Level Pressure 29.86 in    
Wind  
Wind Speed 5 mph ()    
Max Wind Speed 13 mph    
Max Gust Speed 28 mph    
T = Trace of Precipitation, MM = Missing Value Source: Averaged Metar Reports

Daily Weather History Graph

Daily Weather History Graph

Search for Another Location

Airport or City:

Trip Planner

Search our weather history database for the weather conditions in past years. The results will help you decide how hot, cold, wet, or windy it might be!

Date:

Astronomy

Jan. 30, 2013 Rise Set
Actual Time 7:51 AM AST 5:33 PM AST
Civil Twilight 7:19 AM AST 6:05 PM AST
Nautical Twilight 6:44 AM AST 6:40 PM AST
Astronomical Twilight 6:09 AM AST 7:15 PM AST
Moon 9:42 PM AST (1/30) 9:04 AM AST (1/30)
Length of Visible Light 10h 45m
Length of Day
9h 42m
Waning Gibbous, 88% of the Moon is Illuminated
Jan 30
Waning Gibbous
Feb 3
Last Quarter
Feb 10
New
Feb 17
First Quarter
Feb 25
Full

Hourly Weather History & Observations

Time (AST) Temp. Windchill Dew Point Humidity Pressure Visibility Wind Dir Wind Speed Gust Speed Precip Events Conditions
12:00 AM 16.3 °F - 12.4 °F 84% 30.21 in - Calm Calm - N/A   Unknown
1:00 AM 15.1 °F - 12.2 °F 88% 30.22 in - North 1.2 mph - N/A   Unknown
2:00 AM 16 °F - 13 °F 85% 30.19 in - NE 2.3 mph - -  
2:00 AM 16.3 °F - 13.5 °F 88% 30.19 in - NE 2.3 mph - N/A   Unknown
3:00 AM 18.3 °F - 14.7 °F 86% 30.17 in - Calm Calm - N/A   Unknown
4:00 AM 20.7 °F - 16.9 °F 85% 30.14 in - Calm Calm - N/A   Unknown
5:00 AM 22 °F - 19 °F 82% 30.10 in - SSW 1.2 mph - -  
5:00 AM 22.5 °F - 18.9 °F 86% 30.10 in - SSW 1.2 mph - N/A   Unknown
6:00 AM 24.1 °F - 20.3 °F 85% 30.06 in - ESE 1.2 mph - N/A   Unknown
7:00 AM 33.1 °F 28.7 °F 30.9 °F 92% 30.04 in - SE 4.6 mph - N/A   Unknown
8:00 AM 36 °F - 34 °F 88% 30.03 in - South 6.9 mph - -  
8:00 AM 35.8 °F 30.1 °F 33.8 °F 92% 30.03 in - South 6.9 mph - N/A   Unknown
9:00 AM 36.7 °F 30.5 °F 35.2 °F 95% 30.00 in - SSE 8.1 mph - N/A   Unknown
10:00 AM 37.4 °F 31.4 °F 35.8 °F 94% 29.97 in - South 8.1 mph - N/A   Unknown
11:00 AM 38 °F - 37 °F 95% 29.94 in - South 9.2 mph - -  
11:00 AM 38.1 °F 31.7 °F 37.0 °F 96% 29.94 in - South 9.2 mph - 0.02 in   Unknown
12:00 PM 39.2 °F 35.0 °F 38.1 °F 96% 29.88 in - SSE 5.8 mph - N/A   Unknown
1:00 PM 40.5 °F 35.8 °F 39.4 °F 96% 29.82 in - South 6.9 mph - N/A   Unknown
2:00 PM 42 °F - 41 °F 94% 29.74 in - SSE 8.1 mph - -  
2:00 PM 41.9 °F 36.9 °F 40.8 °F 96% 29.74 in - SSE 8.1 mph 17.3 mph N/A   Unknown
3:00 PM 43.7 °F 38.6 °F 43.0 °F 97% 29.71 in - South 9.2 mph 17.3 mph N/A   Unknown
4:00 PM 46.2 °F 41.7 °F 45.5 °F 97% 29.67 in - South 9.2 mph 19.6 mph N/A   Unknown
5:00 PM 48 °F - 47 °F 95% 29.63 in - South 11.5 mph - -  
5:00 PM 47.8 °F - 46.9 °F 97% 29.63 in - South 11.5 mph 18.4 mph N/A   Unknown
6:00 PM 49.1 °F - 48.4 °F 97% 29.59 in - South 11.5 mph 20.7 mph N/A   Unknown
7:00 PM 49.6 °F - 48.7 °F 97% 29.55 in - South 10.4 mph 19.6 mph N/A   Unknown
8:00 PM 51 °F - 50 °F 93% 29.54 in - South 12.7 mph - -  
8:00 PM 50.5 °F - 49.6 °F 97% 29.54 in - South 12.7 mph 27.6 mph N/A   Unknown
9:00 PM 50.4 °F - 49.5 °F 97% 29.52 in - SSW 8.1 mph 18.4 mph N/A   Unknown
10:00 PM 50.4 °F - 49.6 °F 97% 29.51 in - SSW 11.5 mph 19.6 mph N/A   Unknown
11:00 PM 51 °F - 50 °F 95% 29.49 in - SSW 9.2 mph - -  
11:00 PM 51.1 °F - 50.0 °F 96% 29.49 in - SSW 9.2 mph - N/A   Unknown